EHI
0 0 0 0 0 0 0 0 0 0 0 0 0 0 0 0 0 0 0 1 5 12 15 18 20 17 13 12 14 14 11 7 7 8 5 2 2 1 0 1 0 0 0 0 0 0 0 0 0
0 0 0 0 0 0 0 0 0 0 0 0 0 0 0 0 0 0 0 2 7 12 14 16 19 17 12 11 11 10 9 7 7 7 5 3 2 1 1 1 0 0 0 0 0 0 0 0 0
0 0 0 0 0 0 0 0 0 0 0 0 0 0 0 0 0 1 1 3 8 13 14 17 19 17 11 9 7 6 7 6 6 7 5 4 4 2 1 0 0 0 0 0 0 0 0 0 0
1 0 0 0 0 0 0 0 0 0 0 0 0 0 0 0 0 0 1 4 9 13 14 16 19 17 11 7 5 5 6 5 5 5 4 4 3 1 0 0 0 0 0 0 0 0 0 0 0
1 0 0 0 0 0 0 0 0 0 0 0 0 0 0 0 1 1 1 4 9 13 14 14 16 15 10 7 5 4 5 5 3 3 3 4 3 1 0 0 0 0 0 0 0 0 0 0 0
1 0 0 0 0 0 0 0 0 0 0 0 0 0 0 1 2 2 3 5 9 12 13 11 11 11 9 7 5 3 3 3 2 2 2 3 2 1 0 0 0 0 0 0 0 0 0 0 0
0 0 0 0 0 0 0 0 0 0 0 0 0 0 0 1 3 4 6 8 9 11 10 9 7 6 7 7 5 3 1 1 1 2 2 2 2 1 0 0 0 0 0 0 0 0 0 0 0
0 0 0 0 0 0 0 0 0 0 0 0 0 0 0 1 3 6 9 11 10 9 9 7 5 4 4 5 5 3 1 0 1 2 2 1 1 0 0 0 0 0 0 0 0 0 0 0 0
0 0 0 0 0 0 0 0 0 0 0 0 0 1 1 2 4 7 10 11 10 8 8 7 5 4 5 6 5 2 1 0 0 1 1 0 0 0 0 0 0 0 0 0 0 0 0 0 0
0 0 0 0 0 0 0 0 0 0 0 0 0 1 2 3 4 5 8 9 9 9 8 8 7 7 8 8 6 4 2 0 0 0 0 0 0 0 0 0 0 0 0 0 0 0 0 0 0
0 0 0 0 0 0 0 0 0 0 0 0 0 1 2 3 3 4 4 6 7 8 9 10 10 9 9 9 8 7 4 2 0 0 0 0 0 0 0 0 0 0 0 0 0 0 0 0 0
0 0 0 0 0 0 0 0 0 0 0 0 0 1 2 2 2 2 2 3 5 6 8 9 9 8 8 9 9 8 6 3 1 0 0 0 1 0 0 0 0 0 0 0 0 0 0 0 0
0 0 0 0 0 0 0 0 0 0 0 0 0 0 1 1 1 1 1 1 3 4 5 7 8 8 9 9 8 8 6 4 2 1 0 0 0 0 0 0 0 0 0 0 0 0 0 0 0
0 0 0 0 0 0 0 0 0 0 0 0 0 0 0 0 0 0 0 0 1 3 4 7 8 8 9 9 8 6 5 4 2 1 0 0 0 0 0 0 0 0 0 0 0 0 0 0 0
0 0 0 0 0 0 0 0 0 0 0 0 0 0 0 0 0 0 0 0 1 2 3 6 7 7 7 7 6 5 3 2 1 0 0 0 0 0 0 0 0 0 0 0 0 0 0 0 0
0 0 0 0 0 0 0 0 0 0 0 0 0 0 0 0 0 0 0 0 0 1 1 3 4 3 3 3 4 3 1 1 0 0 0 0 0 0 0 0 0 0 0 0 0 0 0 0 0
0 0 0 0 0 0 0 0 0 0 0 0 0 0 0 0 0 0 0 0 0 0 0 1 2 1 1 1 2 2 1 1 0 0 0 0 0 0 0 0 0 0 0 0 0 0 0 0 0
0 0 0 0 0 0 0 0 0 0 0 0 0 0 0 0 0 0 0 0 0 0 0 0 0 0 0 1 2 2 2 2 1 0 0 0 0 0 0 0 0 0 0 0 0 0 0 0 0
0 0 0 0 0 0 0 0 0 0 0 0 0 0 0 0 0 0 0 0 0 0 0 0 0 0 1 2 3 3 3 2 1 0 0 0 0 0 0 0 0 0 0 0 0 0 0 0 0
0 0 0 0 0 0 0 0 0 0 0 0 0 0 0 0 0 0 0 0 0 0 0 0 0 0 1 2 3 3 2 1 0 0 0 0 0 0 0 0 0 0 0 0 0 0 0 0 0
0 0 0 0 0 0 0 0 0 0 0 0 0 0 0 0 0 0 0 0 0 0 0 0 0 0 0 1 2 2 1 0 0 0 0 0 0 0 0 0 0 0 0 0 0 0 0 0 0
0 0 0 0 0 0 0 0 0 0 0 0 0 0 0 0 0 0 0 0 0 0 0 0 0 0 0 0 1 1 0 0 0 0 0 0 0 0 0 0 0 0 0 0 0 0 0 0 0
0 0 0 0 0 0 0 0 0 0 0 0 0 0 0 0 0 0 0 0 0 0 0 0 0 0 0 0 0 0 0 0 0 0 0 0 0 0 0 0 0 0 0 0 0 0 0 0 0
0 0 0 0 0 0 0 0 0 0 0 0 0 0 0 0 0 0 0 0 0 0 0 0 0 0 0 0 0 0 0 0 0 0 0 0 0 0 0 0 0 0 0 0 0 0 0 0 0
0 0 0 0 0 0 0 0 0 0 0 0 0 0 0 0 0 0 0 0 0 0 0 0 0 0 0 0 0 0 0 0 0 0 0 0 0 0 0 0 0 0 0 0 0 0 0 0 0
0 0 0 0 0 0 0 0 0 0 0 0 0 0 0 0 0 0 0 0 0 0 0 0 0 0 0 0 0 0 0 0 0 0 0 0 0 0 0 0 0 0 0 0 0 0 0 0 0
0 0 0 0 0 0 0 0 0 0 0 0 0 0 0 0 0 0 0 0 0 0 0 0 0 0 0 0 0 0 0 0 0 0 0 0 0 0 0 0 0 0 0 0 0 1 1 0 0
0 0 0 0 0 0 0 0 0 0 0 0 0 0 0 0 0 0 0 0 0 0 0 0 0 0 0 0 0 0 0 0 0 0 0 0 0 0 0 0 0 0 0 0 0 1 1 1 0
0 0 0 0 0 0 0 0 0 0 0 0 0 0 0 0 0 0 0 0 0 0 0 0 0 0 0 0 0 0 0 0 0 0 0 0 0 0 0 0 0 0 0 0 0 1 1 1 0
0 0 0 0 0 0 0 0 0 0 0 0 0 0 0 0 0 0 0 0 0 0 0 0 0 0 0 0 0 0 0 0 0 0 0 0 0 0 0 0 0 0 0 0 0 0 1 0 0
Wind_Speed
3 3 3 4 6 7 11 7 5 5 5 4 3 4 5 4 2 3 5 10 13 15 15 16 13 14 14 14 14 14 13 13 13 13 12 12 12 11 11 11 11 11 12 12 11 12 12 12 12
3 3 4 5 8 10 9 8 9 6 3 4 5 4 5 3 3 5 7 11 14 15 14 15 15 14 14 14 14 14 13 13 13 12 12 12 12 12 11 11 11 11 11 11 11 11 11 11 11
4 4 5 6 9 12 7 6 8 4 4 5 5 3 2 2 4 5 7 13 14 14 14 15 14 14 14 14 14 14 13 13 12 12 12 11 11 11 11 11 11 11 11 11 11 11 11 11 11
5 5 5 9 14 12 6 3 4 7 6 5 5 5 3 3 2 5 11 14 15 14 14 15 14 14 14 14 14 13 13 12 12 12 11 11 11 11 11 11 11 11 11 11 10 10 10 10 10
5 6 9 12 15 10 7 4 5 7 7 6 6 4 5 4 3 8 12 13 14 13 13 15 13 14 14 14 13 13 12 12 12 11 11 11 11 11 11 10 10 10 10 10 10 10 10 10 10
6 6 10 15 15 10 8 8 7 7 6 6 6 5 5 5 6 9 11 12 13 13 12 14 13 13 13 13 13 13 12 12 11 11 11 11 11 11 10 10 10 10 10 10 9 9 10 10 10
7 8 12 14 13 11 9 8 10 8 8 7 5 5 6 6 7 9 11 11 12 12 11 12 13 13 12 12 12 12 11 11 11 10 10 10 10 10 10 9 9 9 9 9 9 9 9 9 9
5 6 11 12 13 11 7 8 6 9 7 3 4 5 6 8 9 10 10 10 10 10 10 11 11 11 11 11 11 11 10 10 10 9 9 9 9 9 8 8 8 8 8 8 9 9 9 9 8
6 9 13 13 10 8 7 8 6 3 5 4 3 1 4 12 12 12 11 10 10 10 9 10 10 10 10 10 11 10 10 10 9 9 9 8 7 7 6 7 7 7 7 8 8 8 8 7 8
9 12 14 7 6 5 7 8 7 7 8 7 5 4 9 12 13 14 13 13 13 12 10 9 9 10 9 8 8 7 7 8 7 7 8 6 5 4 5 8 7 6 7 7 8 7 6 3 4
10 12 9 7 5 4 5 6 6 8 9 9 9 10 12 13 13 14 14 13 13 12 10 9 8 9 8 6 6 5 4 5 5 7 7 5 4 4 4 4 5 5 5 4 5 4 2 2 2
10 10 8 7 5 5 5 5 6 9 5 2 6 10 13 14 14 14 14 13 12 11 11 9 9 8 8 7 5 5 5 4 4 5 6 5 4 4 4 3 3 3 2 3 2 2 3 3 3
12 9 9 7 6 6 6 7 7 7 5 3 5 11 14 14 13 12 12 12 12 11 11 10 9 9 8 6 5 5 5 5 5 4 5 5 4 4 4 3 3 3 2 3 2 2 2 2 2
10 9 8 7 8 7 8 8 8 8 5 5 8 11 13 14 13 12 12 12 12 12 11 9 9 9 8 7 6 5 4 4 4 4 5 5 4 3 3 3 3 3 2 2 2 2 2 1 1
7 9 10 9 9 7 7 11 13 8 7 8 10 11 12 12 13 13 13 12 12 11 10 10 9 9 9 8 7 5 4 5 4 4 5 5 4 4 3 3 3 3 3 3 2 2 1 1 1
9 11 11 9 9 8 11 15 10 7 9 10 11 11 11 12 13 12 11 11 10 10 10 9 7 9 9 7 6 5 5 5 4 4 4 5 5 5 4 3 3 3 3 2 2 2 2 2 1
10 13 14 10 9 8 13 13 7 7 10 11 11 11 11 11 12 11 11 10 10 10 10 10 9 9 8 7 5 5 4 4 4 4 4 4 5 5 4 3 3 4 3 3 2 2 2 2 1
13 13 12 12 8 10 13 12 8 8 10 11 11 11 11 12 12 11 10 10 9 10 10 10 10 9 8 6 5 4 4 4 3 4 4 5 5 5 4 3 4 4 3 3 3 3 2 1 1
10 12 12 9 5 9 13 14 12 10 11 12 11 11 12 12 10 10 9 10 10 10 10 10 9 9 8 6 6 5 5 4 4 3 4 5 5 5 5 4 4 4 4 4 4 3 3 2 2
11 12 11 6 5 8 10 14 13 12 13 12 12 12 12 10 10 10 10 10 10 11 10 10 10 9 9 6 5 4 4 3 3 3 3 4 5 5 5 5 4 4 4 4 4 4 3 2 2
13 14 11 7 4 6 8 13 14 12 12 12 12 11 11 11 12 12 11 11 10 10 10 9 10 9 9 8 5 4 3 3 3 4 3 4 4 5 5 5 5 5 4 4 5 5 5 3 3
12 11 10 8 7 6 7 9 11 11 12 13 12 12 11 11 10 10 11 11 10 10 8 9 9 9 9 9 8 9 7 6 5 4 4 4 4 4 4 5 5 5 4 4 4 4 4 4 3
8 8 9 9 8 7 9 9 7 8 12 13 12 12 11 10 10 10 10 10 9 8 8 8 9 9 9 9 9 9 7 5 4 4 5 4 4 4 4 4 4 5 4 4 4 4 4 4 4
6 6 5 5 6 9 12 11 8 8 12 11 11 10 9 8 8 8 8 8 7 7 7 7 8 8 8 9 9 9 8 7 7 6 6 4 3 3 4 4 4 4 4 4 4 4 4 4 4
8 8 5 7 8 8 8 10 8 3 5 8 8 7 6 6 7 7 8 8 8 8 8 8 8 8 8 8 8 8 8 8 8 7 6 5 4 4 5 4 4 4 4 4 4 4 4 4 4
10 10 6 6 8 5 8 10 4 0 1 3 4 5 5 5 5 6 7 7 7 8 8 8 8 8 7 7 7 7 7 6 5 6 5 5 4 4 5 5 4 4 4 4 4 3 4 4 4
8 9 4 3 2 4 7 5 4 1 1 1 3 3 4 4 5 5 6 6 7 7 8 8 8 7 7 7 6 6 6 6 5 5 5 3 3 3 4 4 4 4 4 4 4 3 4 3 4
4 5 4 5 6 7 6 6 3 1 2 1 2 3 3 3 3 4 4 5 5 6 6 7 7 7 6 6 5 4 5 5 5 5 4 4 4 4 4 4 4 4 4 4 4 3 3 3 3
5 5 5 5 4 5 5 3 1 2 2 2 2 1 2 2 3 3 3 4 5 5 5 6 6 6 6 5 5 5 4 4 4 4 4 4 3 4 4 4 4 4 4 4 4 3 3 4 3
4 5 6 6 4 4 3 1 3 2 2 1 0 1 2 2 2 3 4 4 4 5 5 5 5 6 5 5 5 4 4 4 4 4 3 3 3 3 4 4 4 4 4 4 4 4 4 4 4
Wind_Direction
244 235 218 215 217 225 232 218 213 182 189 193 192 203 208 191 195 79 98 149 144 147 147 148 143 140 136 132 127 125 124 123 121 120 117 115 113 110 108 105 101 99 96 94 93 93 93 92 91
229 205 208 218 228 221 219 212 206 196 158 157 182 201 200 186 56 92 136 147 149 147 148 149 140 141 138 134 131 129 127 125 123 121 119 118 115 112 108 106 103 98 97 96 95 94 93 92 91
202 218 218 215 227 227 216 196 206 180 174 188 179 197 211 125 115 121 132 148 149 148 148 139 140 141 140 138 135 133 130 127 125 123 123 121 118 114 109 106 105 101 98 98 97 96 94 92 91
194 196 217 230 226 224 234 162 175 177 177 198 191 167 139 61 80 115 139 151 149 148 147 140 143 142 141 139 137 135 133 130 128 127 124 122 119 115 110 106 104 102 102 102 99 96 94 92 91
216 210 211 225 229 221 226 217 187 192 181 182 198 174 135 96 93 130 147 153 150 148 145 144 144 144 142 141 138 136 134 132 129 128 125 122 119 114 111 108 106 105 105 103 99 97 94 91 91
199 216 220 222 219 217 216 212 206 207 190 180 195 179 126 108 135 143 149 153 150 147 146 144 142 141 141 140 139 138 136 134 132 129 125 122 119 117 115 113 112 109 105 102 100 100 98 95 92
213 213 229 229 222 216 209 204 214 210 201 190 192 178 140 136 135 146 149 149 147 147 148 149 151 148 141 138 137 136 136 134 131 130 125 120 119 119 118 114 113 111 108 104 101 102 102 98 93
232 225 228 226 222 217 197 196 216 219 208 166 198 198 160 147 143 146 144 146 147 151 152 153 155 154 153 147 135 133 131 129 128 126 121 119 121 121 119 120 112 112 109 105 104 103 101 98 93
219 228 225 217 219 212 191 197 194 217 195 178 191 10 92 132 145 147 147 151 154 156 157 158 157 154 153 149 141 141 135 132 136 132 127 140 147 140 135 112 108 112 112 110 110 107 103 104 100
210 227 227 224 228 216 197 207 190 188 195 194 179 130 128 144 156 160 164 165 164 164 163 162 161 157 154 150 153 156 154 154 162 154 154 159 149 135 128 111 105 107 114 116 110 109 119 135 120
211 230 229 225 235 237 213 207 201 206 207 208 197 167 157 163 168 173 174 172 170 166 163 165 163 160 159 158 159 157 156 158 161 159 158 156 149 145 147 144 142 140 142 136 131 146 129 112 99
220 230 232 227 228 230 227 218 215 223 227 226 203 169 168 176 179 180 178 174 170 170 170 168 168 166 166 165 163 164 163 162 161 163 166 163 156 159 153 158 153 153 152 149 149 135 120 114 112
224 226 229 233 229 237 238 233 239 239 250 225 180 175 181 185 186 183 179 174 174 174 173 173 174 172 170 169 169 172 169 166 163 166 172 171 165 163 160 159 156 155 151 154 145 145 131 128 116
220 226 226 234 233 233 236 244 243 239 226 207 187 186 190 189 188 184 181 180 180 179 176 174 177 176 175 175 175 174 172 167 167 169 172 174 170 168 168 162 158 157 155 148 149 141 146 140 129
209 218 228 233 232 227 231 241 233 230 216 211 203 196 195 195 192 192 188 187 183 180 177 175 175 178 179 178 177 173 173 172 173 171 173 174 173 172 171 167 161 158 153 149 149 143 155 148 143
203 217 225 219 222 218 221 237 222 207 209 213 211 205 200 200 199 197 193 191 186 180 179 174 173 179 178 177 175 175 176 175 174 172 174 179 179 177 173 172 170 167 161 162 163 169 167 171 176
202 216 221 216 212 209 219 239 222 205 214 216 213 209 205 201 202 200 195 191 188 183 178 175 173 176 174 172 171 170 171 173 174 175 177 181 183 182 179 181 178 174 171 172 172 183 185 177 169
202 213 217 217 201 211 221 234 227 215 221 223 217 212 207 206 203 195 190 187 184 183 179 176 173 174 168 164 163 159 163 172 177 182 183 182 184 186 184 181 183 180 179 181 179 173 174 179 155
217 216 221 221 211 221 229 237 235 225 224 227 223 217 212 210 200 189 186 184 181 182 181 178 176 174 172 169 171 171 173 174 176 180 182 184 184 185 185 183 183 187 190 189 183 174 170 175 165
214 219 223 219 209 230 239 247 244 234 231 227 225 219 212 203 192 187 185 184 186 185 186 184 183 181 180 177 173 176 168 173 171 171 180 185 188 188 189 189 185 186 189 192 189 184 184 183 200
214 219 218 216 219 229 248 250 234 225 227 229 228 227 218 205 197 188 187 187 187 188 189 188 185 184 182 174 163 155 156 165 175 176 178 190 193 191 188 190 188 187 190 193 196 193 197 193 195
218 216 217 209 211 218 220 252 227 216 217 219 218 215 214 205 201 193 189 188 189 190 188 192 187 185 181 178 179 179 184 185 188 182 180 182 189 187 188 191 191 189 191 193 198 203 207 200 195
218 198 206 214 225 239 221 245 242 203 216 217 215 210 209 204 199 194 191 189 187 182 182 187 187 185 183 187 186 189 192 185 175 175 175 176 178 184 186 189 189 190 192 195 196 198 207 210 208
173 162 164 202 218 233 219 226 246 209 218 214 210 208 205 198 197 197 192 186 183 176 174 177 182 183 184 188 190 191 187 182 176 180 178 179 178 182 187 189 190 192 192 195 200 200 204 211 214
184 173 178 191 206 227 195 220 246 235 233 222 210 205 198 194 193 190 185 183 181 178 176 177 176 178 182 186 190 190 189 186 186 184 184 181 182 186 191 192 194 195 198 199 200 202 207 211 215
194 199 208 206 207 194 192 224 231 296 250 237 221 207 196 192 194 191 186 185 182 179 177 177 176 174 176 181 186 187 187 187 186 188 186 187 189 191 190 194 198 199 198 198 200 205 209 214 218
192 208 245 268 227 214 205 225 260 283 249 216 205 195 193 197 197 193 185 184 180 177 176 176 173 170 171 174 178 180 182 182 178 178 183 187 189 187 190 191 194 200 202 202 200 206 210 216 222
225 185 194 211 204 214 206 218 227 222 230 209 215 208 198 195 187 184 183 180 174 171 171 171 170 168 167 167 169 171 175 177 175 175 178 183 188 189 190 190 192 198 202 204 204 208 212 217 222
182 188 208 214 251 236 212 191 48 276 275 230 215 202 179 169 166 164 164 165 159 153 156 157 158 158 157 159 160 162 167 169 171 176 181 185 191 194 196 196 197 199 202 204 206 209 211 219 225
212 209 206 209 207 240 244 159 41 357 355 325 127 92 112 126 131 137 135 135 142 145 147 148 151 153 154 156 156 153 158 164 168 173 181 189 196 198 197 199 200 201 203 206 208 209 210 218 225